• In Hungary
  • List of Countries
  • For 7 days
  • Water Temperature
  • Satellite Maps
  • Weather Map
  • News
  • Weather Widgets
  • user-avatar
    Login

    Hourly Weather Cieciersk

    Today, 23 September, Sunday

    Time Temperature Precipitation Wind Pressure Humidity
    00:00 +10°C° 0 mm 4 mps 752 mmHg 68%
    01:00 +10°C° 0 mm 4 mps 751 mmHg 69%
    02:00 +10°C° 0 mm 4 mps 751 mmHg 70%
    03:00 +10°C° 0 mm 4 mps 751 mmHg 72%
    04:00 +10°C° 0 mm 4 mps 751 mmHg 73%
    05:00 +10°C° 0.1 mm 4 mps 751 mmHg 74%
    06:00 +10°C° 0.1 mm 4 mps 751 mmHg 75%
    07:00 +10°C° 0.1 mm 5 mps 751 mmHg 76%
    08:00 +12°C° 0.1 mm 5 mps 751 mmHg 73%
    09:00 +12°C° 0.1 mm 5 mps 751 mmHg 71%
    10:00 +13°C° 0.1 mm 5 mps 751 mmHg 68%
    11:00 +14°C° 0.1 mm 5 mps 750 mmHg 65%
    12:00 +14°C° 0.1 mm 5 mps 750 mmHg 62%
    13:00 +15°C° 0.1 mm 5 mps 750 mmHg 60%
    14:00 +14°C° 0.2 mm 4 mps 749 mmHg 64%
    15:00 +14°C° 0.2 mm 4 mps 749 mmHg 68%
    16:00 +13°C° 0.2 mm 3 mps 748 mmHg 72%
    17:00 +13°C° 0.3 mm 3 mps 747 mmHg 77%
    18:00 +13°C° 0.3 mm 2 mps 746 mmHg 83%
    19:00 +12°C° 0.3 mm 2 mps 746 mmHg 89%
    20:00 +12°C° 2.9 mm 2 mps 745 mmHg 90%
    21:00 +10°C° 2.9 mm 2 mps 744 mmHg 92%
    22:00 +10°C° 2.9 mm 3 mps 743 mmHg 93%
    23:00 +10°C° 0.9 mm 4 mps 743 mmHg 92%

    Tomorrow, 24 September, Monday

    Time Temperature Precipitation Wind Pressure Humidity
    00:00 +10°C° 0.9 mm 4 mps 742 mmHg 91%
    01:00 +9°C° 0.9 mm 5 mps 742 mmHg 90%
    02:00 +9°C° 0.8 mm 5 mps 743 mmHg 88%
    03:00 +9°C° 0.8 mm 6 mps 744 mmHg 87%
    04:00 +8°C° 0.8 mm 6 mps 744 mmHg 86%
    05:00 +9°C° 0.1 mm 6 mps 745 mmHg 84%
    06:00 +9°C° 0.1 mm 7 mps 746 mmHg 82%
    07:00 +9°C° 0.1 mm 7 mps 747 mmHg 80%
    08:00 +10°C° 0 mm 8 mps 748 mmHg 74%
    09:00 +11°C° 0 mm 8 mps 748 mmHg 68%
    10:00 +11°C° 0 mm 9 mps 748 mmHg 62%
    11:00 +11°C° 0.3 mm 9 mps 749 mmHg 60%
    12:00 +12°C° 0.3 mm 9 mps 749 mmHg 58%
    13:00 +12°C° 0.3 mm 10 mps 750 mmHg 56%
    14:00 +11°C° 0.3 mm 9 mps 750 mmHg 59%
    15:00 +11°C° 0.3 mm 9 mps 751 mmHg 62%
    16:00 +10°C° 0.3 mm 8 mps 751 mmHg 65%
    17:00 +9°C° 0.3 mm 8 mps 752 mmHg 68%
    18:00 +8°C° 0.3 mm 7 mps 753 mmHg 71%
    19:00 +8°C° 0.3 mm 7 mps 754 mmHg 75%
    20:00 +7°C° 0 mm 6 mps 754 mmHg 75%
    21:00 +6°C° 0 mm 5 mps 755 mmHg 75%
    22:00 +6°C° 0 mm 5 mps 756 mmHg 75%
    23:00 +6°C° 0 mm 5 mps 757 mmHg 76%

    Day after tomorrow, 25 September, Tuesday

    Time Temperature Precipitation Wind Pressure Humidity
    00:00 +5°C° 0 mm 5 mps 757 mmHg 77%
    01:00 +5°C° 0 mm 5 mps 758 mmHg 78%
    02:00 +5°C° 0 mm 5 mps 758 mmHg 77%
    03:00 +3°C° 0 mm 5 mps 759 mmHg 75%
    04:00 +3°C° 0 mm 5 mps 759 mmHg 74%
    05:00 +5°C° 0 mm 5 mps 760 mmHg 71%
    06:00 +4°C° 0 mm 6 mps 760 mmHg 68%
    07:00 +5°C° 0 mm 6 mps 761 mmHg 65%
    08:00 +7°C° 0 mm 6 mps 761 mmHg 59%
    09:00 +8°C° 0 mm 7 mps 762 mmHg 54%
    10:00 +10°C° 0 mm 7 mps 763 mmHg 49%
    11:00 +10°C° 0.1 mm 7 mps 763 mmHg 49%
    12:00 +10°C° 0.1 mm 7 mps 763 mmHg 48%
    13:00 +11°C° 0.1 mm 7 mps 764 mmHg 47%
    14:00 +11°C° 0 mm 6 mps 764 mmHg 47%
    15:00 +11°C° 0 mm 6 mps 764 mmHg 46%
    16:00 +12°C° 0 mm 5 mps 764 mmHg 46%
    17:00 +10°C° 0 mm 4 mps 764 mmHg 49%
    18:00 +9°C° 0 mm 3 mps 765 mmHg 53%
    19:00 +7°C° 0 mm 2 mps 765 mmHg 57%
    20:00 +7°C° 0 mm 2 mps 766 mmHg 57%
    21:00 +7°C° 0 mm 2 mps 766 mmHg 57%
    22:00 +6°C° 0 mm 2 mps 766 mmHg 57%
    23:00 +6°C° 0 mm 2 mps 766 mmHg 61%

    26 September, Wednesday

    Time Temperature Precipitation Wind Pressure Humidity
    00:00 +5°C° 0 mm 3 mps 766 mmHg 65%
    01:00 +5°C° 0 mm 3 mps 766 mmHg 69%
    02:00 +4°C° 0 mm 3 mps 766 mmHg 71%
    03:00 +4°C° 0 mm 3 mps 766 mmHg 73%
    04:00 +4°C° 0 mm 3 mps 766 mmHg 76%
    05:00 +5°C° 0 mm 4 mps 766 mmHg 72%
    06:00 +5°C° 0 mm 4 mps 765 mmHg 69%
    07:00 +6°C° 0 mm 5 mps 765 mmHg 65%
    08:00 +7°C° 0 mm 5 mps 765 mmHg 59%
    09:00 +9°C° 0 mm 6 mps 765 mmHg 53%
    10:00 +11°C° 0 mm 7 mps 765 mmHg 47%
    11:00 +11°C° 0 mm 7 mps 764 mmHg 46%
    12:00 +12°C° 0 mm 7 mps 763 mmHg 45%
    13:00 +12°C° 0 mm 7 mps 763 mmHg 44%
    14:00 +12°C° 0 mm 7 mps 762 mmHg 47%
    15:00 +11°C° 0 mm 6 mps 761 mmHg 50%
    16:00 +12°C° 0 mm 5 mps 760 mmHg 53%
    17:00 +12°C° 0.1 mm 5 mps 760 mmHg 53%
    18:00 +12°C° 0.1 mm 5 mps 760 mmHg 53%
    19:00 +12°C° 0.1 mm 5 mps 760 mmHg 54%
    20:00 +12°C° 0 mm 5 mps 759 mmHg 51%
    21:00 +11°C° 0 mm 6 mps 759 mmHg 49%
    22:00 +11°C° 0 mm 6 mps 759 mmHg 46%
    23:00 +11°C° 0 mm 6 mps 758 mmHg 47%

    27 September, Thursday

    Time Temperature Precipitation Wind Pressure Humidity
    00:00 +11°C° 0 mm 6 mps 758 mmHg 47%
    01:00 +11°C° 0 mm 7 mps 757 mmHg 48%
    02:00 +11°C° 0 mm 7 mps 757 mmHg 50%
    03:00 +10°C° 0 mm 7 mps 757 mmHg 53%
    04:00 +10°C° 0 mm 6 mps 756 mmHg 55%
    05:00 +10°C° 0 mm 7 mps 756 mmHg 57%
    06:00 +10°C° 0 mm 7 mps 756 mmHg 59%
    07:00 +10°C° 0 mm 7 mps 756 mmHg 61%
    08:00 +11°C° 0 mm 7 mps 755 mmHg 61%
    09:00 +12°C° 0 mm 7 mps 755 mmHg 62%
    10:00 +13°C° 0 mm 8 mps 755 mmHg 63%
    11:00 +16°C° 0 mm 8 mps 755 mmHg 62%
    12:00 +17°C° 0 mm 8 mps 755 mmHg 61%
    13:00 +18°C° 0 mm 8 mps 754 mmHg 60%
    14:00 +18°C° 0 mm 8 mps 754 mmHg 62%
    15:00 +18°C° 0 mm 7 mps 754 mmHg 64%
    16:00 +19°C° 0 mm 6 mps 754 mmHg 67%
    17:00 +17°C° 0.2 mm 6 mps 753 mmHg 70%
    18:00 +16°C° 0.2 mm 6 mps 753 mmHg 74%
    19:00 +16°C° 0.2 mm 6 mps 753 mmHg 78%
    20:00 +15°C° 0.2 mm 5 mps 753 mmHg 80%
    21:00 +15°C° 0.2 mm 5 mps 753 mmHg 83%
    22:00 +14°C° 0.2 mm 4 mps 753 mmHg 85%
    23:00 +14°C° 0.2 mm 4 mps 753 mmHg 88%

    28 September, Friday

    Time Temperature Precipitation Wind Pressure Humidity
    00:00 +14°C° 0.2 mm 4 mps 752 mmHg 90%
    01:00 +13°C° 0.2 mm 3 mps 752 mmHg 92%
    02:00 +13°C° 1.3 mm 5 mps 752 mmHg 91%
    03:00 +11°C° 1.3 mm 6 mps 752 mmHg 89%
    04:00 +10°C° 1.3 mm 7 mps 752 mmHg 87%
    05:00 +10°C° 0.4 mm 6 mps 753 mmHg 86%
    06:00 +9°C° 0.4 mm 5 mps 753 mmHg 85%
    07:00 +8°C° 0.4 mm 4 mps 754 mmHg 84%
    08:00 +11°C° 0 mm 4 mps 754 mmHg 75%
    09:00 +12°C° 0 mm 4 mps 755 mmHg 66%
    10:00 +13°C° 0 mm 4 mps 756 mmHg 58%
    11:00 +14°C° 0 mm 4 mps 756 mmHg 53%
    12:00 +14°C° 0 mm 4 mps 756 mmHg 49%
    13:00 +15°C° 0 mm 4 mps 756 mmHg 45%
    14:00 +14°C° 0 mm 4 mps 756 mmHg 45%
    15:00 +14°C° 0 mm 3 mps 756 mmHg 46%
    16:00 +14°C° 0 mm 3 mps 755 mmHg 47%
    17:00 +13°C° 0 mm 2 mps 756 mmHg 50%
    18:00 +12°C° 0 mm 1 mps 756 mmHg 54%
    19:00 +11°C° 0 mm 1 mps 756 mmHg 58%
    20:00 +10°C° 0 mm 1 mps 756 mmHg 58%
    21:00 +10°C° 0 mm 1 mps 756 mmHg 59%
    22:00 +10°C° 0 mm 1 mps 756 mmHg 60%
    23:00 +9°C° 0 mm 1 mps 756 mmHg 61%
    Show more